Regional Weather Roundup
Issued by NWS Burlington, VT

Home | Current Version | Previous Version | Text Only | Print | Product List | Glossary On
Versions: 1 2 3 4 5 6 7 8 9 10 11 12 13 14 15 16 17 18 19 20 21 22 23 24 25 26 27 28 29 30 31 32 33 34 35 36 37 38 39 40 41 42 43 44 45 46 47 48 49 50
000
ASUS41 KBTV 201330
RWRBTV
VERMONT REGIONAL WEATHER ROUNDUP
NATIONAL WEATHER SERVICE BURLINGTON VT
900 AM EDT WED AUG 20 2014

NOTE: "FAIR" INDICATES FEW OR NO CLOUDS BELOW 12,000 FEET WITH NO
SIGNIFICANT WEATHER AND/OR OBSTRUCTIONS TO VISIBILITY.

* THESE REPORTS ARE NOT UNDER NWS QUALITY CONTROL AND/OR DO NOT
  REPORT WEATHER SUCH AS PRECIPITATION AND FOG.

VTZ001>019-201400-
_____VERMONT_____


CITY           SKY/WX    TMP DP  RH WIND       PRES   REMARKS
BURLINGTON     MOSUNNY   66  55  67 CALM      29.98F
MONTPELIER     MOSUNNY   54  54 100 CALM      30.07S
MORRISVILLE    MOSUNNY   56  55  97 CALM      30.04S
ST. JOHNSBURY*   N/A     51  50  96 MISG      30.03S
MIDDLEBURY*    FAIR      67  62  83 CALM      29.99S
RUTLAND*       SUNNY     64  55  72 SW3       30.00F
SPRINGFIELD    MOSUNNY   56  54  93 CALM      30.04S
HIGHGATE*      FAIR      67  57  70 S3        29.98S
NEWPORT*       FAIR      62  57  84 CALM      30.03F
BENNINGTON     MOSUNNY   66  57  72 CALM      30.01S
GALLUP MILLS*    N/A      0 N/A N/A MISG        N/A
UNION VILLAGE*   N/A     55 N/A N/A MISG        N/A
MT. MANSFIELD*   N/A     61 N/A N/A SE3         N/A

_____LAKE CHAMPLAIN_____


CITY           SKY/WX    TMP DP  RH WIND       PRES   REMARKS
BURTON ISLAND*   N/A     63  57  82 S6          N/A
COLCHESTER RF*   N/A     63  57  82 S13         N/A
DIAMOND ISL*     N/A     61  57  88 S1          N/A

$$

NYZ007-026>031-035-052-083-201400-
_____NORTHERN NEW YORK_____


CITY           SKY/WX    TMP DP  RH WIND       PRES   REMARKS
PLATTSBURGH    SUNNY     62  57  83 VRB5      29.98S
SARANAC LAKE   SUNNY     63  55  75 CALM      29.98S
MASSENA        SUNNY     65  57  75 E6        29.95S
OGDENSBURG*    SUNNY     70  59  68 E3        29.94R
PARISHVILLE*     N/A     66 N/A N/A SE8         N/A
WATERTOWN      MOSUNNY   71  61  70 CALM      29.91R
FT DRUM        PTSUNNY   66  54  65 SE10      29.93R
ALBANY         CLOUDY    66  59  78 CALM      29.99S
GLENS FALLS    MOSUNNY   62  56  80 CALM      29.99F

$$
NHZ002-005-011-201400-
_____NEW HAMPSHIRE_____


CITY           SKY/WX    TMP DP  RH WIND       PRES   REMARKS
LEBANON        FOG       55  52  89 CALM      30.04R VSB 1
KEENE          MOSUNNY   63  48  59 CALM      30.04S
MT WASHINGTON  MOSUNNY   52   0  11 NW5         N/A
PLYMOUTH       FAIR      55  55 100 CALM      30.03F
WHITEFIELD     SUNNY     56  53  90 CALM      30.04F

$$

_____REGIONAL QUEBEC LOCATIONS_____


CITY           SKY/WX    TMP DP  RH WIND       PRES   REMARKS
MONTREAL       PTSUNNY   66  57  72 E7        29.98S
QUEBEC CITY    PTSUNNY   64  55  72 VRB2      30.02S
SHERBROOKE     SUNNY     61  55  82 VRB2      30.03S

_____REGIONAL ONTARIO LOCATIONS_____


CITY           SKY/WX    TMP DP  RH WIND       PRES   REMARKS
OTTAWA         PTSUNNY   63  57  82 E8        29.96R

______KEY______
VSB  - VISIBILITY IN MILES
WCI  - WIND CHILL INDEX
HX   - HEAT INDEX
$$



USA.gov is the U.S. government's official web portal to all federal, state and local government web resources and services.